Regional Weather Roundup
Issued by NWS Midland/Odessa, TX

Skip options and go directly to product.
Home | Oldest Version | Previous Version | Current Version | All | Text Only | Save Text | Print | Product List | Glossary Off

Skip product version selection by date and time.   

459
ASUS44 KMAF 101010
RWRMAF
MIDLAND AREA WEATHER ROUNDUP
NATIONAL WEATHER SERVICE MIDLAND TX
400 AM CST WED FEB 10 2016

...IN SOUTHWEST TEXAS AND SOUTHEAST NEW MEXICO...

CITY           SKY/WX    TMP DP  RH WIND       PRES   REMARKS
ALPINE         CLOUDY    35  17  47 SW9       30.42F WCI  28
ANDREWS        FAIR      36  21  55 W5        30.33R WCI  32
ARTESIA        CLOUDY    28  21  74 W6        30.35S WCI  22
BIG SPRING     CLEAR     35  21  57 SE6       30.33S WCI  30
CARLSBAD       CLOUDY    31  21  66 W6        30.33F WCI  25
DRYDEN           N/A     43  20  39 W8        30.30F WCI  38
FORT STOCKTON  CLEAR     42  22  44 SW10      30.32F WCI  36
GUAD PASS      CLOUDY    46  15  28 W10       30.38F
HOBBS          CLOUDY    32  19  59 W8        30.34S WCI  25
MARFA          CLOUDY    24  15  68 N8        30.39S WCI  15
MIDLAND AIRPK  PTCLDY    38  25  59 W5        30.32S WCI  35
MIDLAND INTL   PTCLDY    36  24  62 W6        30.32S WCI  31
ODESSA         CLEAR     41  22  46 W6        30.33S WCI  37
PECOS          CLOUDY    29  22  73 W6        30.33F WCI  23
PRESIDIO       FAIR      46  17  30 W6        30.34S
SEMINOLE       CLEAR     34  22  60 W6        30.33F WCI  29
SNYDER           N/A     38  25  61 N5        30.31R WCI  34
WINK           CLOUDY    31  20  63 N7        30.32F WCI  24
$$
...OTHER STATIONS IN TEXAS...

CITY           SKY/WX    TMP DP  RH WIND       PRES   REMARKS
ABILENE        CLEAR     38  29  70 S6        30.30F WCI  33
AMARILLO       CLOUDY    31  21  66 SW7       30.28F WCI  24
AUSTIN         CLEAR     32  29  88 CALM      30.35R
BROWNSVILLE    PTCLDY    45  42  89 CALM      30.34R
CORPUS CHRISTI CLEAR     42  30  62 SW5       30.32S WCI  39
DALLAS FTW     CLEAR     38  25  59 NW5       30.32S WCI  34
DEL RIO        CLEAR     43  26  51 CALM      30.30F
EL PASO        CLEAR     39  19  44 NE7       30.34S WCI  34
HOUSTON INT    CLEAR     46  28  49 N5        30.34S
LUBBOCK        CLOUDY    29  17  61 NW7       30.31R WCI  22
SAN ANGELO     CLEAR     35  24  64 W5        30.31S WCI  31
SAN ANTONIO    CLEAR     49  30  48 N3        30.33S
WACO           CLEAR     32  27  81 W3        30.34F
WICHITA FALLS  NOT AVBL
$$
...OTHER LOCATIONS IN NEW MEXICO...

CITY           SKY/WX    TMP DP  RH WIND       PRES   REMARKS
ALAMAGORDO     CLOUDY    32  16  51 E9        30.37S WCI  24
ALBUQUERQUE    CLOUDY    33  19  56 CALM      30.40F
CANNON AFB     CLOUDY    40  18  41 NW10      30.31F WCI  33
CLOVIS         CLOUDY    30  18  59 NW10      30.32F WCI  21
HOLLOMAN AFB   CLOUDY    31  14  49 N2        30.35S
ROSWELL        CLOUDY    31  20  63 N7        30.34S WCI  24
RUIDOSO          N/A     36  14  41 W6        30.41F WCI  31
SANTA FE       CLOUDY    29  18  63 N15       30.39S WCI  18
TRUTH OR CONSE CLEAR     37  18  46 NW9       30.37R WCI  30
TUCUMCARI      CLOUDY    33  18  53 W8        30.30F WCI  26
$$

USA.gov is the U.S. government's official web portal to all federal, state and local government web resources and services.